Location: Góry Miechowskie
(50.3599°N, 20.1803°E)
Time: 14:36:34
(UTC+00:00)

A-11 Canister half - Pass Details

Date: 22 September 2024
Orbit: 1515 x 1684 km, 47.2° (Epoch: 11 October)

Event Time Altitude Azimuth Distance (km) Brightness Sun altitude
Rises 19:55:41 0° 281° (W) 4,703 12.4 -29.8°
Reaches altitude 10° 19:58:48 10° 278° (W) 3,704 11.6 -30.2°
Maximum altitude 20:07:51 60° 202° (SSW) 1,704 9.0 -31.2°
Enters shadow 20:08:39 58° 181° (S) 1,728 8.9 -31.3°
